Location: Detroit
(42.3310°N, 83.0460°W)
Time: 17:19:52
(UTC-05:00)

A-11 Canister half - Pass Details

Date: 05 October 2023
Orbit: 1525 x 1684 km, 47.3° (Epoch: 02 December)

Event Time Altitude Azimuth Distance (km) Brightness Sun altitude
Rises 20:31:32 0° 294° (WNW) 4,736 13.1 -16.4°
Reaches altitude 10° 20:35:02 10° 285° (WNW) 3,770 12.4 -17.1°
Maximum altitude 20:42:54 30° 229° (SW) 2,573 10.5 -18.5°
Drops below altitude 10° 20:50:59 10° 173° (S) 3,863 10.9 -20.0°
Sets 20:54:40 0° 163° (SSE) 4,869 11.3 -20.6°
